Date String (YYYY-MM-DD hh:mm:ss) UTC,Instrument flags,Ambient pressure (hPa),Sample flow (lpm),Bypass flow (lpm),Sample temperature (°C),Ambient temperature (°C),ASC tube jacket temperature (°C),LED temperature (°C),Box temperature (°C),Sample RH (%),Span deviation,Mass concentration (μg/m³),Mass concentration (μg/m³),Mass concentration (μg/m³)
DateTimeUTC,F1_M11,P_M11,Q1_M11,Q2_M11,T1_M11,T2_M11,T3_M11,T4_M11,T5_M11,U1_M11,ZSPAN_M11,X0_M11,X2_M11,X1_M11
2023-05-08 05:00:00,,0830.2,5.00,0.00,30.5,29.1,00.0,38.9,32.0,12.6,0000.0,0006.98,0002.61,0001.64
2023-05-08 05:01:00,,0830.2,5.00,0.00,30.5,29.1,00.0,38.9,32.1,12.6,0000.0,0007.38,0002.53,0001.64
2023-05-08 05:02:00,,0830.2,5.00,0.00,30.5,29.1,00.0,38.9,32.0,12.3,0000.0,0007.14,0002.50,0001.64
2023-05-08 05:03:00,,0830.3,5.00,0.00,30.5,29.1,00.0,38.9,32.0,12.4,0000.0,0006.38,0002.48,0001.62
2023-05-08 05:04:00,,0830.3,5.00,0.00,30.6,29.1,00.0,38.9,32.0,12.4,0000.0,0006.59,0002.48,0001.60
2023-05-08 05:05:00,,0830.2,5.00,0.00,30.6,29.1,00.0,38.9,32.0,12.5,0000.0,0008.03,0002.49,0001.58
2023-05-08 05:06:00,,0830.2,5.00,0.00,30.6,29.1,00.0,38.9,32.0,12.1,0000.0,0007.96,0002.49,0001.57
2023-05-08 05:07:00,,0830.3,5.00,0.00,30.6,29.2,00.0,38.9,32.0,12.1,0000.0,0007.95,0002.47,0001.56
2023-05-08 05:08:00,,0830.3,5.00,0.00,30.6,29.2,00.0,38.9,32.0,12.6,0000.0,0007.88,0002.40,0001.54
2023-05-08 05:09:00,,0830.3,5.00,0.00,30.6,29.2,00.0,38.9,32.0,13.1,0000.0,0007.93,0002.42,0001.53
2023-05-08 05:10:00,,0830.3,5.01,0.00,30.6,29.2,00.0,39.0,32.0,13.4,0000.0,0007.87,0002.39,0001.53
2023-05-08 05:11:00,,0830.3,5.00,0.00,30.6,29.2,00.0,39.0,32.1,13.6,0000.0,0007.52,0002.31,0001.51
2023-05-08 05:12:00,,0830.4,4.99,0.00,30.7,29.2,00.0,39.0,32.1,13.6,0000.0,0007.32,0002.36,0001.51
2023-05-08 05:13:00,,0830.4,5.00,0.00,30.7,29.2,00.0,39.0,32.1,13.6,0000.0,0007.60,0002.40,0001.50
2023-05-08 05:14:00,,0830.4,5.00,0.00,30.7,29.2,00.0,39.0,32.1,13.6,0000.0,0007.56,0002.38,0001.49
2023-05-08 05:15:00,,0830.5,5.00,0.00,30.7,29.2,00.0,39.0,32.2,13.6,0000.0,0007.68,0002.34,0001.48
2023-05-08 05:16:00,,0830.4,4.99,0.00,30.7,29.2,00.0,39.0,32.2,13.6,0000.0,0006.73,0002.35,0001.47
2023-05-08 05:17:00,,0830.4,5.00,0.00,30.7,29.2,00.0,39.0,32.1,13.6,0000.0,0005.76,0002.33,0001.44
2023-05-08 05:18:00,,0830.5,5.02,0.00,30.7,29.2,00.0,39.0,32.2,13.6,0000.0,0006.12,0002.32,0001.42
2023-05-08 05:19:00,,0830.4,4.99,0.00,30.7,29.2,00.0,39.0,32.2,13.7,0000.0,0006.42,0002.37,0001.41
2023-05-08 05:20:00,,0830.5,5.00,0.00,30.7,29.2,00.0,39.0,32.2,13.7,0000.0,0006.53,0002.39,0001.40
2023-05-08 05:21:00,,0830.6,5.00,0.00,30.6,29.1,00.0,39.0,32.1,13.7,0000.0,0006.67,0002.39,0001.38
2023-05-08 05:22:00,,0830.4,5.00,0.00,30.6,29.1,00.0,39.0,32.1,13.7,0000.0,0006.72,0002.36,0001.37
2023-05-08 05:23:00,,0830.4,4.99,0.00,30.6,29.1,00.0,39.0,32.2,13.7,0000.0,0006.54,0002.31,0001.34
2023-05-08 05:24:00,,0830.4,5.02,0.00,30.6,29.1,00.0,39.0,32.2,13.7,0000.0,0005.88,0002.19,0001.32
2023-05-08 05:25:00,,0830.4,5.00,0.00,30.6,29.1,00.0,39.0,32.2,13.7,0000.0,0007.04,0002.20,0001.31
2023-05-08 05:26:00,,0830.4,4.99,0.00,30.6,29.1,00.0,39.0,32.2,13.7,0000.0,0006.86,0002.20,0001.31
2023-05-08 05:27:00,,0830.5,4.99,0.00,30.6,29.1,00.0,39.0,32.2,13.6,0000.0,0006.32,0002.15,0001.30
2023-05-08 05:28:00,,0830.4,5.00,0.00,30.7,29.1,00.0,39.0,32.2,13.6,0000.0,0006.27,0002.19,0001.32
2023-05-08 05:29:00,,0830.4,4.99,0.00,30.7,29.1,00.0,39.0,32.2,13.7,0000.0,0005.94,0002.18,0001.33
2023-05-08 05:30:00,,0830.3,5.00,0.00,30.7,29.1,00.0,39.0,32.2,13.7,0000.0,0005.90,0002.14,0001.31
2023-05-08 05:31:00,,0830.3,5.00,0.00,30.7,29.1,00.0,39.0,32.2,13.4,0000.0,0006.15,0002.10,0001.31
2023-05-08 05:32:00,,0830.3,5.00,0.00,30.6,29.1,00.0,39.0,32.1,13.3,0000.0,0006.48,0002.08,0001.29
2023-05-08 05:33:00,,0830.3,5.00,0.00,30.6,29.1,00.0,39.0,32.2,13.4,0000.0,0006.62,0002.13,0001.29
2023-05-08 05:34:00,,0830.3,5.00,0.00,30.7,29.1,00.0,39.0,32.2,13.4,0000.0,0006.53,0002.12,0001.28
2023-05-08 05:35:00,,0830.3,5.00,0.00,30.7,29.1,00.0,39.1,32.2,13.2,0000.0,0006.51,0002.12,0001.27
2023-05-08 05:36:00,,0830.4,5.00,0.00,30.7,29.1,00.0,39.1,32.2,12.9,0000.0,0005.26,0002.05,0001.24
2023-05-08 05:37:00,,0830.4,5.00,0.00,30.7,29.2,00.0,39.1,32.2,12.6,0000.0,0004.84,0001.98,0001.22
2023-05-08 05:38:00,,0830.4,4.99,0.00,30.7,29.2,00.0,39.1,32.2,12.3,0000.0,0004.76,0001.97,0001.22
2023-05-08 05:39:00,,0830.3,5.00,0.00,30.7,29.2,00.0,39.1,32.2,12.4,0000.0,0004.63,0001.93,0001.21
2023-05-08 05:40:00,,0830.3,5.01,0.00,30.7,29.2,00.0,39.1,32.2,12.1,0000.0,0004.51,0001.89,0001.19
2023-05-08 05:41:00,,0830.3,5.01,0.00,30.7,29.2,00.0,39.1,32.2,12.3,0000.0,0004.34,0001.86,0001.19
2023-05-08 05:42:00,,0830.3,5.00,0.00,30.7,29.2,00.0,39.1,32.2,12.5,0000.0,0003.78,0001.83,0001.19
2023-05-08 05:43:00,,0830.3,5.00,0.00,30.7,29.2,00.0,39.1,32.2,12.4,0000.0,0003.49,0001.84,0001.18
2023-05-08 05:44:00,,0830.3,4.99,0.00,30.7,29.2,00.0,39.1,32.2,12.2,0000.0,0003.12,0001.83,0001.19
2023-05-08 05:45:00,,0830.3,5.00,0.00,30.7,29.2,00.0,39.1,32.2,12.5,0000.0,0003.13,0001.85,0001.19
2023-05-08 05:46:00,,0830.3,5.01,0.00,30.7,29.2,00.0,39.1,32.2,12.3,0000.0,0003.33,0001.85,0001.19
2023-05-08 05:47:00,,0830.3,5.01,0.00,30.7,29.2,00.0,39.1,32.2,12.2,0000.0,0003.37,0001.88,0001.20
2023-05-08 05:48:00,,0830.3,5.00,0.00,30.7,29.2,00.0,39.1,32.2,12.6,0000.0,0003.50,0001.93,0001.19
2023-05-08 05:49:00,,0830.4,5.00,0.00,30.7,29.2,00.0,39.1,32.2,12.3,0000.0,0003.64,0001.96,0001.18
2023-05-08 05:50:00,,0830.4,4.99,0.00,30.7,29.2,00.0,39.1,32.2,12.5,0000.0,0003.71,0001.96,0001.16
2023-05-08 05:51:00,,0830.4,5.00,0.00,30.7,29.2,00.0,39.1,32.2,13.0,0000.0,0004.14,0001.98,0001.17
2023-05-08 05:52:00,,0830.4,5.00,0.00,30.7,29.1,00.0,39.1,32.2,13.2,0000.0,0004.70,0002.02,0001.17
2023-05-08 05:53:00,,0830.4,5.01,0.00,30.7,29.1,00.0,39.1,32.1,13.1,0000.0,0004.90,0002.05,0001.17
2023-05-08 05:54:00,,0830.4,5.00,0.00,30.7,29.0,00.0,39.1,32.1,13.0,0000.0,0004.98,0002.09,0001.19
2023-05-08 05:55:00,,0830.4,5.00,0.00,30.7,29.0,00.0,39.1,32.1,13.0,0000.0,0005.01,0002.07,0001.20
2023-05-08 05:56:00,,0830.3,5.00,0.00,30.7,29.0,00.0,39.1,32.1,13.0,0000.0,0005.07,0002.07,0001.20
2023-05-08 05:57:00,,0830.4,5.00,0.00,30.6,29.0,00.0,39.1,32.1,13.0,0000.0,0004.91,0002.06,0001.20
2023-05-08 05:58:00,,0830.4,5.00,0.00,30.6,29.0,00.0,39.1,32.1,13.1,0000.0,0004.89,0002.06,0001.20
2023-05-08 05:59:00,,0830.5,5.01,0.00,30.6,29.0,00.0,39.1,32.1,13.2,0000.0,0004.97,0002.08,0001.21
